[[{"header":{"parameterUnit":"m.s-1","parameterCategory":1,"la1":30.2991,"la2":30.254,"lo1":-89.0895,"lo2":-89.0444,"dy":0.0017,"dx":0.0017,"nx":28,"ny":28,"refTime":"2024-04-18T21:00:00:Z","depth":0,"parameterNumber":2,"parameterNumberName":"U-component_of_WINDS"},"data":[0,0,0,0,0,0,0,0,0,0,0,0,0,0,0,0,0,0,0,0,0,0,0,0,0,0,0,0,0,0,0,0,0,0,0,0,0,0,0,0,0,0,0,0,0,0,0,0,0,0,0,0,0,0,0,0,0,0,0.3361,0.336,0,0.3336,0.3336,0.3335,0.3307,0.3306,0.3306,0.3305,0.328,0.3279,0.3279,0,0,0,0,0,0,0,0,0,0,0,0,0,0.3382,0.3382,0.3361,0.336,0.336,0.3336,0.3336,0.3335,0.3307,0.3306,0.3306,0.3305,0.328,0.3279,0.3279,0,0,0,0,0,0,0,0,0,0,0,0,0,0.3367,0.3382,0.3361,0.3343,0.3341,0.3336,0.3336,0.3335,0.3307,0.3306,0.3306,0.3305,0.328,0.328,0.3279,0.3289,0,0,0.3278,0.3278,0,0,0,0,0,0,0,0,0.3368,0.3366,0.3346,0.3344,0.3342,0.3324,0.3334,0.332,0.3307,0.332,0.3305,0.3305,0.3295,0.3293,0.329,0.3288,0.3287,0.3278,0.3277,0.3277,0.3277,0,0,0,0,0,0,0,0.3369,0.3367,0.3351,0.3346,0.3343,0.3336,0.3333,0.3331,0.3311,0.3319,0.3317,0.3314,0.3294,0.329,0.3289,0.3287,0.3278,0.3277,0.3277,0.3277,0.329,0.329,0,0,0,0,0,0,0.3373,0.3368,0.3352,0.335,0.3354,0.3336,0.3333,0.333,0.3311,0.3308,0.3315,0.3313,0.3291,0.329,0.3288,0.3298,0.3277,0.3277,0.3277,0.3289,0.329,0.3291,0,0,0,0,0,0,0.3373,0.3371,0.3353,0.3358,0.3355,0.3336,0.3334,0.333,0.3327,0.3308,0.3304,0.3315,0.3291,0.3289,0.3289,0.3296,0.3277,0.3276,0.3289,0.3289,0.329,0.3317,0,0,0,0,0,0,0.3374,0.3372,0.3376,0.3359,0.3355,0.3354,0.3334,0.333,0.3326,0.3324,0.3307,0.3304,0.329,0.329,0.3288,0.3295,0.3276,0.3288,0.3289,0.329,0.3316,0.3319,0.3322,0,0,0,0,0,0.3375,0.3385,0.3376,0.3374,0.336,0.3355,0.3353,0.3337,0.3327,0.333,0.3318,0.3305,0.3296,0.329,0.3288,0.3295,0.3287,0.3289,0.329,0.3314,0.3319,0.3322,0,0,0,0,0,0,0.3404,0.3382,0.3373,0.3377,0.3368,0.335,0.3354,0.3342,0.3335,0.3333,0.3313,0.3309,0.3312,0.3303,0.3297,0.3303,0.3289,0.329,0.3309,0.3312,0.3315,0.3317,0.3276,0,0,0,0,0,0.3411,0.3408,0.339,0.3396,0.3392,0.3374,0.3371,0.3359,0.3349,0.3345,0.3332,0.3323,0.3317,0.3314,0.3309,0.3314,0.331,0.3318,0.3321,0.3324,0.3325,0.3326,0.3329,0.3295,0.3295,0.3295,0,0,0.3425,0.3413,0.3413,0.3401,0.3393,0.339,0.3371,0.3369,0.3367,0.3344,0.3343,0.3334,0.3322,0.3324,0.3325,0.3317,0.3333,0.3326,0.3328,0.3328,0.3328,0.3331,0.3334,0.3296,0.3296,0.3296,0,0,0.3449,0.3441,0.3444,0.3436,0.3423,0.3411,0.3411,0.3395,0.3388,0.3386,0.3369,0.3366,0.3358,0.3349,0.3344,0.3363,0.335,0.3362,0.3378,0.338,0.3382,0.3385,0.3391,0.3393,0.3363,0.3363,0.3363,0,0.3469,0.3465,0.3447,0.3447,0.3442,0.3421,0.3423,0.3416,0.3402,0.3399,0.3391,0.3379,0.3369,0.3369,0.3373,0.337,0.337,0.3364,0.3383,0.3385,0.3387,0.3393,0.3395,0.3365,0.3365,0.3364,0.3364,0,0.3489,0.3486,0.3491,0.3477,0.3472,0.3474,0.3456,0.3453,0.3441,0.343,0.3428,0.3415,0.3406,0.3405,0.3394,0.3403,0.3398,0.3387,0.3373,0.3392,0.3397,0.3399,0.3367,0.3366,0.3366,0.3366,0,0,0.3532,0.3508,0.3509,0.3502,0.3486,0.3483,0.3483,0.3474,0.3472,0.3462,0.3461,0.3454,0.3443,0.3437,0.3424,0.3425,0.344,0.3413,0.3413,0.3418,0.3448,0.3456,0.3459,0.3431,0.3432,0.3432,0.3449,0,0.3553,0.3551,0.3535,0.3538,0.3534,0.3514,0.3513,0.3503,0.3491,0.3487,0.3474,0.3469,0.3456,0.3451,0.3452,0.3439,0.3446,0.3437,0.3429,0.3429,0.3433,0.3462,0.3471,0.3487,0.345,0.3451,0.3451,0,0.3578,0.3569,0.3572,0.3554,0.3552,0.3552,0.3541,0.3537,0.3525,0.3516,0.3509,0.3494,0.3492,0.3478,0.3474,0.3468,0.3464,0.3457,0.3457,0.3456,0.3441,0.346,0.3492,0.3494,0.3454,0.3454,0.3454,0,0.3607,0.3597,0.3597,0.3591,0.3571,0.3571,0.3563,0.3549,0.3544,0.3535,0.3531,0.3522,0.3517,0.3509,0.3492,0.3484,0.3489,0.3475,0.3482,0.3482,0.3484,0.3484,0.3514,0.3482,0.3482,0.3482,0.3482,0,0.3633,0.3635,0.361,0.3609,0.3611,0.3591,0.3593,0.3582,0.357,0.3567,0.3549,0.3546,0.3524,0.3518,0.3505,0.3503,0.3501,0.3493,0.349,0.3495,0.3496,0.3491,0.349,0.3482,0.3482,0.3482,0.3482,0,0.3666,0.365,0.3648,0.3628,0.3623,0.3625,0.3608,0.3607,0.3594,0.359,0.3588,0.3568,0.3561,0.3543,0.3531,0.3522,0.3522,0.3516,0.3527,0.3524,0.3532,0.3531,0.3561,0.3563,0.353,0.353,0.353,0,0.3683,0.3684,0.3665,0.3661,0.3653,0.3648,0.3643,0.3623,0.3618,0.3603,0.3603,0.3594,0.3586,0.3574,0.3558,0.3549,0.3542,0.3552,0.354,0.3545,0.3541,0.3541,0.354,0.3555,0.3556,0.3556,0.3556,0,0.3714,0.3706,0.3699,0.3689,0.3683,0.3674,0.3665,0.3663,0.3641,0.3636,0.3628,0.3621,0.3608,0.3599,0.3587,0.3577,0.3563,0.356,0.3561,0.3566,0.3572,0.3568,0.3534,0.356,0.3559,0.3559,0.3559,0.3559,0.374,0.3739,0.3725,0.3718,0.3708,0.3699,0.3696,0.3683,0.3676,0.3664,0.3653,0.3646,0.3631,0.3613,0.3604,0.3598,0.3591,0.3592,0.3592,0.3593,0.3595,0.3573,0.3595,0.3595,0.3595,0.3595,0.3595,0,0.3769,0.3759,0.3752,0.3739,0.3733,0.372,0.3708,0.3704,0.3698,0.3686,0.3678,0.3668,0.3658,0.3641,0.363,0.3628,0.3621,0.3626,0.3625,0.3623,0.3602,0.3602,0.3631,0.3631,0.3631,0.3631,0.3631,0.3631,0.3784,0.3782,0.3772,0.3764,0.3754,0.3747,0.3741,0.3732,0.3722,0.3712,0.3704,0.3693,0.3679,0.3666,0.3656,0.3652,0.3648,0.3655,0.3648,0.3628,0.3625,0.3622,0.3621,0.3654,0.3654,0.3669,0.3669,0.3669]},{"header":{"parameterUnit":"m.s-1","parameterCategory":1,"la1":30.2991,"la2":30.254,"lo1":-89.0895,"lo2":-89.0444,"dy":0.0017,"dx":0.0017,"nx":28,"ny":28,"refTime":"2024-04-18T21:00:00:Z","depth":0,"parameterNumber":3,"parameterNumberName":"V-component_of_WINDS"},"data":[0,0,0,0,0,0,0,0,0,0,0,0,0,0,0,0,0,0,0,0,0,0,0,0,0,0,0,0,0,0,0,0,0,0,0,0,0,0,0,0,0,0,0,0,0,0,0,0,0,0,0,0,0,0,0,0,0,0,2.2911,2.2912,0,2.2944,2.2944,2.2945,2.2924,2.2923,2.2922,2.2921,2.2951,2.2952,2.2954,0,0,0,0,0,0,0,0,0,0,0,0,0,2.2827,2.2828,2.2911,2.2912,2.2912,2.2944,2.2944,2.2945,2.2924,2.2923,2.2922,2.2921,2.295,2.2952,2.2954,0,0,0,0,0,0,0,0,0,0,0,0,0,2.2862,2.2829,2.2911,2.2906,2.2906,2.2944,2.2944,2.2945,2.2924,2.2923,2.2922,2.292,2.295,2.2952,2.2954,2.2998,0,0,2.2962,2.2963,0,0,0,0,0,0,0,0,2.286,2.2865,2.2906,2.2906,2.2906,2.2928,2.2925,2.2963,2.2925,2.2917,2.2921,2.2919,2.2944,2.2947,2.2956,2.3,2.3001,2.2962,2.2964,2.2965,2.2966,0,0,0,0,0,0,0,2.2857,2.2863,2.2924,2.2907,2.2907,2.29,2.2904,2.2932,2.2938,2.2918,2.2916,2.2921,2.2944,2.2954,2.2957,2.3002,2.2962,2.2964,2.2966,2.2967,2.3083,2.3084,0,0,0,0,0,0,2.2856,2.2861,2.2923,2.2925,2.2879,2.2903,2.2907,2.2923,2.2938,2.2939,2.2922,2.292,2.295,2.2954,2.2958,2.301,2.2965,2.2967,2.2969,2.3081,2.3083,2.3085,0,0,0,0,0,0,2.2854,2.2862,2.2922,2.2893,2.29,2.2906,2.2924,2.2924,2.2934,2.2941,2.2941,2.2931,2.2949,2.2954,2.2989,2.3011,2.2968,2.2971,2.3079,2.3082,2.3084,2.3116,0,0,0,0,0,0,2.2852,2.2861,2.2879,2.2893,2.2902,2.2954,2.2925,2.2926,2.2939,2.2936,2.295,2.2951,2.2948,2.2985,2.2991,2.3014,2.2973,2.3077,2.308,2.3083,2.3113,2.312,2.3125,0,0,0,0,0,2.2849,2.2886,2.288,2.2888,2.2924,2.2955,2.2959,2.2957,2.2941,2.2958,2.2962,2.295,2.3008,2.2989,2.2995,2.3019,2.3076,2.3079,2.3083,2.3111,2.3118,2.3125,0,0,0,0,0,0,2.2873,2.2888,2.2881,2.2925,2.2939,2.2951,2.2973,2.2965,2.2983,2.298,2.2975,2.2978,2.3014,2.302,2.2999,2.3062,2.3039,2.3044,2.3058,2.3065,2.3071,2.3069,2.2975,0,0,0,0,0,2.2883,2.2908,2.2919,2.2956,2.2964,2.2968,2.2981,2.2978,2.2992,2.2997,2.3004,2.3017,2.3038,2.3051,2.3071,2.3114,2.3116,2.3133,2.3139,2.3144,2.3148,2.3171,2.3179,2.3096,2.3096,2.3096,0,0,2.2905,2.2916,2.2932,2.2962,2.2972,2.2997,2.2973,2.3,2.3018,2.3001,2.3035,2.304,2.3054,2.3093,2.311,2.3098,2.3171,2.3148,2.3152,2.3154,2.3175,2.3183,2.319,2.3098,2.3098,2.3098,0,0,2.2958,2.2969,2.3001,2.3012,2.3029,2.3031,2.3039,2.3053,2.3056,2.309,2.3078,2.3098,2.3134,2.3144,2.3154,2.321,2.3199,2.3216,2.3247,2.3269,2.3275,2.3281,2.3301,2.3309,2.3221,2.3221,2.3221,0,2.2982,2.3021,2.3018,2.3047,2.306,2.3046,2.3078,2.3089,2.311,2.3119,2.3106,2.3151,2.3159,2.32,2.3214,2.3222,2.323,2.3215,2.3275,2.3281,2.3286,2.3305,2.3313,2.3223,2.3222,2.3222,2.3222,0,2.305,2.3076,2.31,2.3123,2.3138,2.3168,2.3169,2.3185,2.318,2.3183,2.3217,2.3226,2.3248,2.3257,2.3252,2.3297,2.329,2.3276,2.3252,2.3296,2.3314,2.3321,2.3225,2.3225,2.3224,2.3224,0,0,2.3119,2.3141,2.3149,2.316,2.3177,2.3197,2.3225,2.3247,2.3261,2.3275,2.3299,2.3329,2.3317,2.3328,2.3324,2.3344,2.3387,2.3327,2.3327,2.3338,2.3438,2.3449,2.3457,2.338,2.3381,2.3382,2.3437,0,2.3173,2.3225,2.3224,2.3272,2.3296,2.3283,2.3308,2.332,2.3323,2.3343,2.3346,2.3368,2.3349,2.3356,2.3375,2.3378,2.3407,2.3374,2.3401,2.3402,2.3399,2.3467,2.3478,2.3529,2.3444,2.3445,2.3446,0,2.3243,2.3262,2.3313,2.3327,2.3337,2.336,2.3379,2.3399,2.3412,2.3413,2.3425,2.3418,2.3446,2.3421,2.3458,2.3436,2.3447,2.345,2.3452,2.3455,2.3427,2.3472,2.3545,2.3553,2.3457,2.3456,2.3455,0,2.329,2.3328,2.3363,2.3372,2.3388,2.3405,2.3412,2.3424,2.3437,2.3454,2.3462,2.3481,2.3492,2.3506,2.3504,2.3486,2.3542,2.3517,2.3543,2.3543,2.3557,2.3556,2.3633,2.3562,2.3562,2.3562,2.3562,0,2.3351,2.3382,2.3384,2.3406,2.3441,2.3437,2.3471,2.3477,2.3487,2.3509,2.3498,2.3518,2.3514,2.3533,2.3531,2.3563,2.3567,2.3568,2.3567,2.357,2.357,2.3577,2.3574,2.3564,2.3563,2.3563,2.3563,0,2.3409,2.3411,2.3449,2.3462,2.3466,2.3491,2.3501,2.3521,2.3523,2.355,2.3556,2.3559,2.3582,2.3581,2.3606,2.3604,2.3643,2.3638,2.364,2.3639,2.3665,2.3663,2.3751,2.3763,2.3683,2.3684,2.3685,0,2.3448,2.3473,2.3488,2.3503,2.3511,2.3534,2.3548,2.3545,2.356,2.3577,2.3594,2.3616,2.3634,2.367,2.3674,2.3693,2.3688,2.3717,2.3691,2.3692,2.3689,2.3688,2.3691,2.3723,2.3724,2.3725,2.3725,0,2.3518,2.3518,2.3539,2.356,2.3577,2.3594,2.3609,2.3621,2.3619,2.3636,2.3659,2.3673,2.3699,2.3721,2.3739,2.3745,2.3735,2.3733,2.3741,2.3744,2.3744,2.3745,2.3655,2.3732,2.3731,2.373,2.373,2.373,2.3568,2.3589,2.3604,2.3627,2.3638,2.3653,2.3672,2.3677,2.3697,2.3719,2.3715,2.3742,2.3754,2.3777,2.3785,2.3805,2.3794,2.3804,2.3807,2.381,2.3813,2.374,2.3808,2.3807,2.3807,2.3807,2.3807,0,2.3638,2.3646,2.3668,2.369,2.3708,2.3698,2.3714,2.373,2.3754,2.3766,2.3783,2.381,2.3831,2.3836,2.3856,2.3871,2.3867,2.3876,2.3875,2.3877,2.3821,2.3814,2.3879,2.3879,2.3879,2.3879,2.3879,2.3879,2.3676,2.3712,2.3713,2.3753,2.3761,2.3788,2.3798,2.3811,2.382,2.3852,2.3869,2.3873,2.3882,2.3902,2.392,2.3921,2.3929,2.3941,2.394,2.3888,2.3881,2.3874,2.3867,2.3942,2.3942,2.3994,2.3994,2.3995]}]]